WXM80 ListenWXM80 Stop

You find our weather info also at:

UK Metoffice

WeatherCloud

Weather Underground

Northeastern Weather Network

AWEKAS

Citizen Weather Observer Program (CWOP)

HAMweather, WeatherForYou, PWS Weather


Weather Underground History page Text

Daily Summary for October 12, 2017 Units:  Metric    English   Both
« Previous Day
Next Day »
Daily Weekly Monthly Yearly Custom
  High: Low: Average:
Temperature: 18.6 °C 12.9 °C 15.4 °C
Dew Point: 14.5 °C 8.9 °C 11.6 °C
Humidity: 94 % 62 % 78 %
Wind Speed: 19.3 km/h 0.5 km/h 7.4 km/h
Wind Gust: 35.4 km/h - -
Wind:- - East
Pressure: 1029 hPa 1019.9 hPa -
Precipitation: 1.78 mm    
Historical Graphs
 
 
Tabular Data for October 12, 2017
Time Temperature Dew Point Pressure Wind Wind Speed Wind Gust Humidity Rainfall Rate (Hourly)
00:01 16.5 °C 13.1 °C 1020.2 hPa East 1.6 km/h 3.7 km/h 80 % 0 mm
00:06 16.5 °C 13.2 °C 1021.2 hPa ESE 2.7 km/h 3.7 km/h 81 % 0 mm
00:11 16.5 °C 13.4 °C 1020.2 hPa East 3.5 km/h 7.4 km/h 82 % 0 mm
00:16 16.4 °C 13.3 °C 1020.2 hPa East 4.5 km/h 7.4 km/h 82 % 0 mm
00:21 16.5 °C 13.4 °C 1020.2 hPa East 3.9 km/h 5.6 km/h 82 % 0 mm
00:26 16.5 °C 13.4 °C 1019.9 hPa SE 3.5 km/h 6.4 km/h 82 % 0 mm
00:31 16.5 °C 13.6 °C 1020.2 hPa ESE 1.8 km/h 5.6 km/h 83 % 0 mm
00:37 16.5 °C 13.6 °C 1020.2 hPa ESE 1.8 km/h 3.7 km/h 83 % 0 mm
00:42 16.5 °C 13.8 °C 1020.5 hPa East 2.6 km/h 3.7 km/h 84 % 0 mm
00:46 16.5 °C 13.8 °C 1020.5 hPa ESE 1.9 km/h 3.7 km/h 84 % 0 mm
00:51 16.6 °C 13.8 °C 1020.5 hPa East 3.4 km/h 5.6 km/h 84 % 0 mm
00:56 16.6 °C 13.8 °C 1020.5 hPa East 5.3 km/h 5.6 km/h 84 % 0 mm
01:02 16.6 °C 13.8 °C 1020.5 hPa East 3.7 km/h 7.4 km/h 84 % 0 mm
01:07 16.6 °C 13.9 °C 1022.2 hPa East 4.5 km/h 7.4 km/h 84 % 0 mm
01:12 16.7 °C 13.8 °C 1022.2 hPa East 4.5 km/h 11.1 km/h 83 % 0 mm
01:17 16.7 °C 13.8 °C 1021.9 hPa East 8 km/h 13 km/h 83 % 0 mm
01:22 16.7 °C 13.8 °C 1022.6 hPa East 6.4 km/h 11.1 km/h 83 % 0 mm
01:27 16.8 °C 13.7 °C 1022.6 hPa ENE 2.9 km/h 5.6 km/h 82 % 0 mm
01:32 16.8 °C 13.7 °C 1022.6 hPa SE 3.5 km/h 8 km/h 82 % 0 mm
01:37 16.8 °C 13.9 °C 1022.6 hPa East 3.7 km/h 5.6 km/h 83 % 0 mm
01:42 16.8 °C 14.1 °C 1021.2 hPa East 6 km/h 8 km/h 84 % 0 mm
01:47 16.6 °C 13.9 °C 1022.6 hPa East 5 km/h 8 km/h 84 % 0 mm
01:52 16.5 °C 14.2 °C 1022.9 hPa East 1.4 km/h 3.7 km/h 86 % 0.25 mm
01:57 16.3 °C 14.2 °C 1022.9 hPa East 2.1 km/h 5.6 km/h 87 % 0.25 mm
02:02 16.2 °C 14.1 °C 1022.9 hPa ENE 4.5 km/h 7.4 km/h 87 % 0.25 mm
02:07 16.1 °C 14.1 °C 1021.2 hPa East 1.8 km/h 5.6 km/h 88 % 0.25 mm
02:12 15.9 °C 13.9 °C 1021.6 hPa ESE 1 km/h 3.7 km/h 88 % 0.25 mm
02:18 15.9 °C 14.1 °C 1021.6 hPa East 2.9 km/h 5.6 km/h 89 % 0.25 mm
02:23 15.8 °C 14 °C 1021.2 hPa ESE 3.5 km/h 5.6 km/h 89 % 0.25 mm
02:28 15.8 °C 14.2 °C 1021.6 hPa ESE 0.8 km/h 3.7 km/h 90 % 0.51 mm
02:33 15.7 °C 14.1 °C 1022.2 hPa SSE 3.1 km/h 5.6 km/h 90 % 0.51 mm
02:38 15.7 °C 14.1 °C 1022.9 hPa East 3.9 km/h 7.4 km/h 90 % 0.51 mm
02:43 15.6 °C 14.2 °C 1021.6 hPa ESE 1.9 km/h 5.6 km/h 91 % 0.51 mm
02:48 15.6 °C 14.1 °C 1021.2 hPa East 3.9 km/h 5.6 km/h 91 % 0.51 mm
02:53 15.6 °C 14.1 °C 1022.6 hPa ESE 2.7 km/h 5.6 km/h 91 % 0.25 mm
02:58 15.6 °C 14.3 °C 1022.6 hPa East 6 km/h 8 km/h 92 % 0.51 mm
03:03 15.6 °C 14.3 °C 1021.2 hPa East 4 km/h 5.6 km/h 92 % 0.51 mm
03:08 15.6 °C 14.3 °C 1021.2 hPa East 3.4 km/h 7.4 km/h 92 % 0.51 mm
03:14 15.6 °C 14.3 °C 1021.2 hPa ESE 5.5 km/h 9.3 km/h 92 % 0.51 mm
03:19 15.6 °C 14.3 °C 1022.6 hPa East 5.3 km/h 8 km/h 92 % 0.51 mm
03:24 15.6 °C 14.3 °C 1021.2 hPa East 8.2 km/h 13 km/h 92 % 0.25 mm
03:29 15.6 °C 14.1 °C 1021.2 hPa ESE 6.8 km/h 11.1 km/h 91 % 0.25 mm
03:34 15.5 °C 14.1 °C 1022.9 hPa East 8.2 km/h 11.1 km/h 91 % 0.25 mm
03:39 15.5 °C 14.1 °C 1022.9 hPa ESE 7.7 km/h 11.3 km/h 91 % 0.25 mm
03:44 15.6 °C 14.3 °C 1022.9 hPa East 4 km/h 5.6 km/h 92 % 0.25 mm
03:49 15.6 °C 14.3 °C 1021.6 hPa East 6.8 km/h 9.7 km/h 92 % 0.25 mm
03:54 15.5 °C 14.2 °C 1021.9 hPa ESE 5.3 km/h 9.3 km/h 92 % 0.25 mm
03:59 15.4 °C 14.3 °C 1021.9 hPa East 3.9 km/h 7.4 km/h 93 % 0.25 mm
04:04 15.4 °C 14.3 °C 1023.2 hPa East 4 km/h 8 km/h 93 % 0.25 mm
04:09 15.4 °C 14.3 °C 1023.2 hPa ESE 4.2 km/h 8 km/h 93 % 0.25 mm
04:14 15.4 °C 14.3 °C 1021.9 hPa East 4.3 km/h 9.3 km/h 93 % 0.25 mm
04:20 15.4 °C 14.3 °C 1021.6 hPa East 5.6 km/h 8 km/h 93 % 0.51 mm
04:25 15.4 °C 14.3 °C 1021.6 hPa East 9.5 km/h 13 km/h 93 % 0.51 mm
04:30 15.4 °C 14.5 °C 1023.2 hPa ENE 9.7 km/h 14.8 km/h 94 % 0.51 mm
04:35 15.4 °C 14.3 °C 1022.6 hPa East 14 km/h 22.2 km/h 93 % 0.51 mm
04:40 15.3 °C 14.2 °C 1022.9 hPa ENE 16.9 km/h 22.2 km/h 93 % 0.51 mm
04:45 15.3 °C 14.2 °C 1022.6 hPa ENE 11.6 km/h 18.5 km/h 93 % 0.51 mm
04:50 15.3 °C 14.2 °C 1022.6 hPa East 10.3 km/h 14.5 km/h 93 % 0.76 mm
04:55 15.3 °C 14 °C 1022.9 hPa ENE 9.7 km/h 11.1 km/h 92 % 0.76 mm
05:00 15.3 °C 14.2 °C 1022.9 hPa East 11.7 km/h 18.5 km/h 93 % 0.51 mm
05:05 15.4 °C 14.2 °C 1024.3 hPa ENE 15.1 km/h 24.1 km/h 92 % 0.51 mm
05:10 15.4 °C 14.2 °C 1024.3 hPa ENE 17.4 km/h 24.1 km/h 92 % 0.51 mm
05:15 15.4 °C 14 °C 1024.3 hPa ENE 16.1 km/h 22.2 km/h 91 % 0.25 mm
05:20 15.4 °C 13.7 °C 1022.6 hPa ENE 17.2 km/h 22.2 km/h 89 % 0.25 mm
05:40 15.5 °C 13.9 °C 1023.9 hPa ENE 14.5 km/h 22.5 km/h 90 % 0 mm
05:50 15.3 °C 13.7 °C 1023.2 hPa ENE 9.7 km/h 24.1 km/h 90 % 0 mm
05:55 15.3 °C 13.7 °C 1024.3 hPa ENE 19.3 km/h 32.2 km/h 90 % 0.25 mm
06:05 15.2 °C 13.4 °C 1024.6 hPa ENE 19.3 km/h 35.4 km/h 89 % 0 mm
06:10 15.2 °C 13.4 °C 1024.3 hPa ENE 19.3 km/h 30.6 km/h 89 % 0 mm
06:15 15.2 °C 13.4 °C 1023.2 hPa ENE 11.3 km/h 30.6 km/h 89 % 0 mm
06:25 15.2 °C 13 °C 1024.6 hPa ENE 19.3 km/h 29 km/h 87 % 0 mm
06:35 15.2 °C 12.8 °C 1022.9 hPa ENE 19.3 km/h 27.4 km/h 86 % 0 mm
06:40 15.2 °C 12.8 °C 1023.2 hPa East 14.5 km/h 27.4 km/h 86 % 0 mm
06:45 15.1 °C 12.6 °C 1023.6 hPa ENE 16.1 km/h 25.7 km/h 85 % 0 mm
06:50 15.1 °C 12.4 °C 1023.6 hPa ENE 19.3 km/h 27.4 km/h 84 % 0 mm
06:55 15.1 °C 12.4 °C 1023.6 hPa ENE 14.5 km/h 25.7 km/h 84 % 0 mm
07:05 14.9 °C 12.3 °C 1023.6 hPa ENE 14.5 km/h 32.2 km/h 84 % 0 mm
07:10 14.9 °C 12.4 °C 1023.2 hPa ENE 12.9 km/h 29 km/h 85 % 0 mm
07:15 14.8 °C 12.2 °C 1023.9 hPa ENE 12.9 km/h 25.7 km/h 84 % 0 mm
07:20 14.8 °C 11.9 °C 1023.9 hPa ENE 16.1 km/h 24.1 km/h 83 % 0 mm
07:25 14.8 °C 11.9 °C 1023.9 hPa ENE 16.1 km/h 22.5 km/h 83 % 0 mm
07:30 14.8 °C 12.1 °C 1023.9 hPa ENE 9.7 km/h 24.1 km/h 84 % 0 mm
07:35 14.7 °C 12.1 °C 1024.3 hPa East 14.5 km/h 22.5 km/h 84 % 0 mm
07:40 14.7 °C 12.1 °C 1024.3 hPa East 14.5 km/h 17.7 km/h 84 % 0 mm
07:45 14.7 °C 12.1 °C 1024.3 hPa ENE 14.5 km/h 25.7 km/h 84 % 0 mm
07:50 14.7 °C 11.9 °C 1024.3 hPa ENE 14.5 km/h 30.6 km/h 83 % 0 mm
07:55 14.7 °C 12.1 °C 1024.6 hPa ENE 11.3 km/h 25.7 km/h 84 % 0 mm
08:05 14.7 °C 12.2 °C 1024.6 hPa East 9.7 km/h 27.4 km/h 85 % 0 mm
08:10 14.7 °C 12 °C 1024.6 hPa ENE 14.5 km/h 24.1 km/h 84 % 0 mm
08:15 14.7 °C 12 °C 1024.6 hPa ENE 19.3 km/h 35.4 km/h 84 % 0 mm
08:20 14.7 °C 12 °C 1024.9 hPa ENE 19.3 km/h 27.4 km/h 84 % 0 mm
08:25 14.6 °C 12.1 °C 1024.9 hPa ENE 16.1 km/h 27.4 km/h 85 % 0 mm
08:30 14.5 °C 12 °C 1024.9 hPa ENE 16.1 km/h 25.7 km/h 85 % 0 mm
08:35 14.5 °C 12 °C 1024.9 hPa ENE 12.9 km/h 20.9 km/h 85 % 0 mm
08:40 14.5 °C 12.2 °C 1024.9 hPa ENE 16.1 km/h 25.7 km/h 86 % 0 mm
08:45 14.5 °C 12 °C 1025.3 hPa ENE 19.3 km/h 30.6 km/h 85 % 0 mm
08:50 14.6 °C 12.1 °C 1025.3 hPa ENE 14.5 km/h 25.7 km/h 85 % 0 mm
08:55 14.6 °C 12.1 °C 1025.3 hPa ENE 12.9 km/h 32.2 km/h 85 % 0 mm
09:05 14.7 °C 12.2 °C 1025.3 hPa ENE 12.9 km/h 29 km/h 85 % 0 mm
09:10 14.8 °C 12.3 °C 1025.3 hPa ENE 14.5 km/h 25.7 km/h 85 % 0 mm
09:15 14.8 °C 12.3 °C 1025.3 hPa ENE 19.3 km/h 30.6 km/h 85 % 0 mm
09:20 14.8 °C 12.3 °C 1025.3 hPa ENE 12.9 km/h 30.6 km/h 85 % 0 mm
09:25 14.9 °C 12.2 °C 1025.6 hPa ENE 16.1 km/h 29 km/h 84 % 0 mm
09:30 14.8 °C 11.9 °C 1025.6 hPa ENE 19.3 km/h 27.4 km/h 83 % 0 mm
09:35 14.8 °C 11.9 °C 1026 hPa ENE 9.7 km/h 27.4 km/h 83 % 0 mm
09:40 14.8 °C 11.9 °C 1026 hPa ENE 16.1 km/h 25.7 km/h 83 % 0 mm
09:45 14.8 °C 12.2 °C 1026 hPa ENE 11.3 km/h 24.1 km/h 84 % 0 mm
09:50 14.9 °C 12.2 °C 1026 hPa ENE 14.5 km/h 22.5 km/h 84 % 0 mm
09:55 14.9 °C 12 °C 1025.6 hPa ENE 9.7 km/h 25.7 km/h 83 % 0 mm
10:05 14.9 °C 12 °C 1026 hPa ENE 12.9 km/h 27.4 km/h 83 % 0 mm
10:10 14.9 °C 12 °C 1027.7 hPa ENE 9.7 km/h 17.7 km/h 83 % 0 mm
10:15 14.9 °C 12.1 °C 1026 hPa ENE 11.3 km/h 19.3 km/h 83 % 0 mm
10:20 14.9 °C 11.8 °C 1026 hPa ENE 9.7 km/h 25.7 km/h 82 % 0 mm
10:25 14.9 °C 11.8 °C 1026.3 hPa ENE 14.5 km/h 20.9 km/h 82 % 0 mm
10:30 14.9 °C 11.8 °C 1026 hPa East 9.7 km/h 17.7 km/h 82 % 0 mm
10:35 14.9 °C 11.8 °C 1026 hPa East 11.3 km/h 27.4 km/h 82 % 0 mm
10:44 14.9 °C 11.9 °C 1027.7 hPa ENE 14.8 km/h 35.4 km/h 82 % 0 mm
10:49 14.9 °C 11.9 °C 1027.7 hPa East 11.7 km/h 22.2 km/h 82 % 0 mm
10:52 15 °C 11.9 °C 1027.7 hPa East 10.5 km/h 13 km/h 82 % 0 mm
10:57 15 °C 11.9 °C 1027.7 hPa ENE 16.6 km/h 24.1 km/h 82 % 0 mm
11:02 15.1 °C 12 °C 1027.7 hPa ENE 13.8 km/h 24.1 km/h 82 % 0 mm
11:07 15.1 °C 11.9 °C 1027.7 hPa East 10.8 km/h 14.8 km/h 81 % 0 mm
11:12 15.1 °C 11.9 °C 1027.7 hPa East 12.1 km/h 22.2 km/h 81 % 0 mm
11:17 15.2 °C 12.1 °C 1027.7 hPa East 14.8 km/h 22.5 km/h 82 % 0 mm
11:22 15.2 °C 11.8 °C 1028 hPa ENE 13.4 km/h 27.8 km/h 80 % 0 mm
11:27 15.3 °C 11.8 °C 1026.6 hPa East 9 km/h 11.1 km/h 80 % 0 mm
11:32 15.3 °C 11.8 °C 1027.7 hPa East 10.1 km/h 13 km/h 80 % 0 mm
11:37 15.3 °C 11.9 °C 1026.6 hPa East 8.7 km/h 11.1 km/h 80 % 0 mm
11:42 15.3 °C 11.7 °C 1026.3 hPa ENE 9 km/h 16.7 km/h 79 % 0 mm
11:47 15.4 °C 11.8 °C 1027 hPa East 9 km/h 18.5 km/h 79 % 0 mm
11:52 15.5 °C 12.1 °C 1026.3 hPa ENE 13.5 km/h 14.5 km/h 80 % 0 mm
11:57 15.6 °C 11.9 °C 1028 hPa ENE 9.7 km/h 18.5 km/h 79 % 0 mm
12:02 15.7 °C 12.1 °C 1028 hPa ENE 10.8 km/h 13 km/h 79 % 0 mm
12:07 15.9 °C 12.1 °C 1028 hPa East 10 km/h 12.9 km/h 78 % 0 mm
12:12 16.1 °C 12.2 °C 1028 hPa East 9.3 km/h 11.1 km/h 78 % 0 mm
12:17 16.1 °C 11.9 °C 1028 hPa ENE 9 km/h 18.5 km/h 76 % 0 mm
12:22 16.1 °C 11.9 °C 1026.6 hPa ENE 10.6 km/h 14.5 km/h 76 % 0 mm
12:27 16.1 °C 11.7 °C 1026.3 hPa ENE 11.7 km/h 18.5 km/h 75 % 0 mm
12:32 16.2 °C 11.8 °C 1026.3 hPa East 10 km/h 18.5 km/h 75 % 0 mm
12:37 16.3 °C 11.9 °C 1026.3 hPa East 8.7 km/h 11.3 km/h 75 % 0 mm
12:42 16.7 °C 11.6 °C 1026.6 hPa ENE 8 km/h 20.4 km/h 72 % 0 mm
12:44 16.7 °C 11.6 °C 1026.3 hPa East 10.5 km/h 18.5 km/h 72 % 0 mm
12:49 16.7 °C 11.8 °C 1027.7 hPa East 10.1 km/h 18.5 km/h 73 % 0 mm
12:54 16.7 °C 11.7 °C 1027.7 hPa East 7.7 km/h 11.1 km/h 72 % 0 mm
12:59 16.7 °C 11.4 °C 1026 hPa East 8.4 km/h 11.1 km/h 71 % 0 mm
13:04 16.6 °C 11.3 °C 1026.3 hPa East 5.3 km/h 8 km/h 71 % 0 mm
13:09 16.6 °C 11.6 °C 1026 hPa ENE 6.8 km/h 7.4 km/h 72 % 0 mm
13:14 16.9 °C 11.8 °C 1026 hPa ENE 7.9 km/h 18.5 km/h 72 % 0 mm
13:19 16.8 °C 11.6 °C 1026 hPa ENE 11.4 km/h 18.5 km/h 71 % 0 mm
13:24 16.8 °C 11.3 °C 1026 hPa East 9.7 km/h 16.7 km/h 70 % 0 mm
13:29 16.6 °C 11.3 °C 1025.6 hPa ENE 6.4 km/h 8 km/h 71 % 0 mm
13:34 16.5 °C 11.4 °C 1025.6 hPa NE 9 km/h 13 km/h 72 % 0 mm
13:39 16.8 °C 11.9 °C 1025.6 hPa ENE 11.9 km/h 19.3 km/h 73 % 0 mm
13:44 16.9 °C 11.8 °C 1025.6 hPa East 9 km/h 14.8 km/h 72 % 0 mm
13:49 16.9 °C 11.2 °C 1025.6 hPa ENE 6.8 km/h 20.4 km/h 69 % 0 mm
13:54 17.1 °C 11.1 °C 1025.6 hPa ENE 7.9 km/h 16.7 km/h 68 % 0 mm
13:59 17.2 °C 11.5 °C 1025.6 hPa ENE 10.3 km/h 16.7 km/h 69 % 0 mm
14:04 17.2 °C 11.1 °C 1025.6 hPa ENE 13.5 km/h 24.1 km/h 67 % 0 mm
14:09 17.4 °C 11.9 °C 1025.6 hPa East 6.8 km/h 14.5 km/h 70 % 0 mm
14:15 17.7 °C 11.7 °C 1025.3 hPa ENE 5.8 km/h 20.4 km/h 68 % 0 mm
14:20 18 °C 11.8 °C 1025.3 hPa ENE 6.3 km/h 9.3 km/h 67 % 0 mm
14:25 18.2 °C 11.8 °C 1025.3 hPa East 6.8 km/h 9.3 km/h 66 % 0 mm
14:30 18.3 °C 11.6 °C 1025.3 hPa East 5.5 km/h 16.7 km/h 65 % 0 mm
14:35 18.5 °C 11.8 °C 1025.3 hPa ENE 4.8 km/h 7.4 km/h 65 % 0 mm
14:40 18.6 °C 11.6 °C 1025.3 hPa ENE 5.3 km/h 7.4 km/h 64 % 0 mm
14:45 18.6 °C 11.1 °C 1025.6 hPa East 7.1 km/h 9.7 km/h 62 % 0 mm
14:50 18.6 °C 11.4 °C 1025.3 hPa East 6.6 km/h 8 km/h 63 % 0 mm
14:55 18.6 °C 11.4 °C 1024.9 hPa East 5 km/h 9.7 km/h 63 % 0 mm
15:00 18.5 °C 11.1 °C 1027 hPa East 4.8 km/h 7.4 km/h 62 % 0 mm
15:05 18.4 °C 11 °C 1027 hPa East 5.3 km/h 8 km/h 62 % 0 mm
15:10 18.3 °C 10.9 °C 1027 hPa ENE 4 km/h 6.4 km/h 62 % 0 mm
15:16 18.3 °C 10.8 °C 1026.6 hPa East 3.2 km/h 11.3 km/h 62 % 0 mm
15:21 18.2 °C 10.8 °C 1025.3 hPa East 4.8 km/h 12.9 km/h 62 % 0 mm
15:26 18.1 °C 11.1 °C 1026.6 hPa East 4.8 km/h 19.3 km/h 64 % 0 mm
15:31 17.9 °C 10.8 °C 1026.6 hPa East 4.8 km/h 9.7 km/h 63 % 0 mm
15:36 17.8 °C 10.7 °C 1026.6 hPa East 3.2 km/h 8 km/h 63 % 0 mm
15:41 17.7 °C 10.8 °C 1025.3 hPa East 3.2 km/h 12.9 km/h 64 % 0 mm
15:46 17.6 °C 10.4 °C 1025.3 hPa ENE 4 km/h 6.4 km/h 63 % 0 mm
15:51 17.6 °C 10.7 °C 1024.9 hPa East 5.3 km/h 8 km/h 64 % 0 mm
15:56 17.4 °C 10.6 °C 1024.9 hPa ENE 4.8 km/h 5.6 km/h 64 % 0 mm
16:01 17.4 °C 10.3 °C 1024.9 hPa ENE 4.2 km/h 14.8 km/h 63 % 0 mm
16:06 17.3 °C 10.4 °C 1024.9 hPa ENE 4.8 km/h 14.5 km/h 64 % 0 mm
16:11 17.3 °C 10.4 °C 1026.6 hPa ENE 4.8 km/h 14.5 km/h 64 % 0 mm
16:16 17.3 °C 10.6 °C 1024.9 hPa East 3.2 km/h 9.7 km/h 65 % 0 mm
16:21 17.2 °C 10.6 °C 1024.9 hPa East 4.8 km/h 8 km/h 65 % 0 mm
16:26 17.2 °C 10.6 °C 1025.3 hPa East 3.2 km/h 8 km/h 65 % 0 mm
16:31 17.2 °C 10.3 °C 1025.3 hPa East 4.8 km/h 9.7 km/h 64 % 0 mm
16:36 17.1 °C 10.2 °C 1025.6 hPa East 3.2 km/h 11.3 km/h 64 % 0 mm
16:41 17.1 °C 10.2 °C 1026.6 hPa East 8 km/h 11.3 km/h 64 % 0 mm
16:46 17 °C 10.4 °C 1026.6 hPa East 4.8 km/h 8 km/h 65 % 0 mm
16:51 16.9 °C 10.1 °C 1026.6 hPa East 3.2 km/h 20.9 km/h 64 % 0 mm
16:56 16.9 °C 10.6 °C 1026.6 hPa East 4.8 km/h 9.7 km/h 66 % 0 mm
17:01 16.9 °C 10.5 °C 1026.6 hPa East 4.8 km/h 7.4 km/h 66 % 0 mm
17:06 16.8 °C 10.4 °C 1027 hPa East 3.4 km/h 9.3 km/h 66 % 0 mm
17:11 16.8 °C 10.4 °C 1025.3 hPa East 3.2 km/h 7.4 km/h 66 % 0 mm
17:16 16.7 °C 10.1 °C 1025.3 hPa East 5.3 km/h 7.4 km/h 65 % 0 mm
17:21 16.7 °C 10.1 °C 1027 hPa East 5.3 km/h 8 km/h 65 % 0 mm
17:26 16.6 °C 10 °C 1027 hPa East 4.3 km/h 9.3 km/h 65 % 0 mm
17:31 16.6 °C 10.4 °C 1027 hPa East 5.5 km/h 11.1 km/h 67 % 0 mm
17:36 16.5 °C 10.3 °C 1027 hPa East 3.1 km/h 7.4 km/h 67 % 0 mm
17:41 16.4 °C 10.1 °C 1027 hPa East 4.5 km/h 7.4 km/h 66 % 0 mm
17:46 16.4 °C 10.2 °C 1027 hPa East 3.2 km/h 5.6 km/h 67 % 0 mm
17:51 16.3 °C 10.2 °C 1027.3 hPa East 3.7 km/h 5.6 km/h 67 % 0 mm
17:56 16.3 °C 10.1 °C 1027.3 hPa SE 2.6 km/h 5.6 km/h 67 % 0 mm
18:01 16.2 °C 10.3 °C 1027 hPa ESE 2.1 km/h 5.6 km/h 68 % 0 mm
18:06 16.2 °C 10.3 °C 1026 hPa East 1.9 km/h 5.6 km/h 68 % 0 mm
18:12 16.1 °C 10.4 °C 1026 hPa East 1.9 km/h 3.7 km/h 69 % 0 mm
18:17 16 °C 10.1 °C 1026.3 hPa East 1.9 km/h 11.1 km/h 68 % 0 mm
18:22 15.9 °C 9.8 °C 1026.3 hPa SE 2.6 km/h 5.6 km/h 67 % 0 mm
18:27 15.8 °C 9.9 °C 1026.3 hPa ESE 1.4 km/h 5.6 km/h 68 % 0 mm
18:32 15.7 °C 9.8 °C 1026.3 hPa SE 2.9 km/h 7.4 km/h 68 % 0 mm
18:37 15.5 °C 9.6 °C 1026.3 hPa ESE 3.7 km/h 5.6 km/h 68 % 0 mm
18:42 15.3 °C 9.7 °C 1026.3 hPa SE 1.4 km/h 4.8 km/h 69 % 0 mm
18:47 15.2 °C 9.6 °C 1026.3 hPa SE 2.1 km/h 3.7 km/h 69 % 0 mm
18:52 15.1 °C 9.7 °C 1026.3 hPa ESE 3.2 km/h 5.6 km/h 70 % 0 mm
18:57 14.9 °C 9.5 °C 1026.3 hPa SE 1 km/h 1.9 km/h 70 % 0 mm
19:02 14.9 °C 9.4 °C 1026.3 hPa SE 0.8 km/h 1.9 km/h 70 % 0 mm
19:07 14.7 °C 9.5 °C 1026.3 hPa ESE 2.1 km/h 5.6 km/h 71 % 0 mm
19:13 14.7 °C 9.7 °C 1026.3 hPa SE 1.3 km/h 5.6 km/h 72 % 0 mm
19:18 14.5 °C 9.5 °C 1026.6 hPa East 0.8 km/h 9.3 km/h 72 % 0 mm
19:23 14.4 °C 9.4 °C 1026.3 hPa ESE 1.9 km/h 5.6 km/h 72 % 0 mm
19:28 14.3 °C 9.6 °C 1026.6 hPa ESE 2.3 km/h 9.3 km/h 73 % 0 mm
19:33 14.2 °C 9.4 °C 1026.6 hPa ESE 1.8 km/h 5.6 km/h 73 % 0 mm
19:38 14.2 °C 9.4 °C 1026.6 hPa ESE 3.9 km/h 7.4 km/h 73 % 0 mm
19:43 14.1 °C 9.3 °C 1026.6 hPa SE 2.6 km/h 7.4 km/h 73 % 0 mm
19:48 14 °C 9.2 °C 1026.6 hPa East 2.9 km/h 7.4 km/h 73 % 0 mm
19:53 13.9 °C 9.4 °C 1027.3 hPa ESE 2.3 km/h 7.4 km/h 74 % 0 mm
19:58 13.9 °C 9.4 °C 1026.6 hPa ESE 2.1 km/h 5.6 km/h 74 % 0 mm
20:03 13.8 °C 9.3 °C 1026.6 hPa ESE 1.3 km/h 5.6 km/h 74 % 0 mm
20:08 13.8 °C 9.2 °C 1027 hPa ESE 3.5 km/h 5.6 km/h 74 % 0 mm
20:13 13.8 °C 9.2 °C 1027 hPa ESE 2.9 km/h 6.4 km/h 74 % 0 mm
20:18 13.7 °C 9.3 °C 1027 hPa SE 3.5 km/h 5.6 km/h 75 % 0 mm
20:23 13.6 °C 9.1 °C 1027 hPa ESE 2.1 km/h 5.6 km/h 74 % 0 mm
20:28 13.6 °C 9.2 °C 1027 hPa ESE 4.7 km/h 11.1 km/h 75 % 0 mm
20:33 13.5 °C 9.2 °C 1027 hPa ESE 1.3 km/h 3.7 km/h 75 % 0 mm
20:38 13.4 °C 9.1 °C 1027.3 hPa ESE 1.3 km/h 3.7 km/h 75 % 0 mm
20:43 13.4 °C 9.1 °C 1027.3 hPa ESE 1.1 km/h 3.7 km/h 75 % 0 mm
20:48 13.3 °C 9 °C 1027.3 hPa ESE 5.8 km/h 16.7 km/h 75 % 0 mm
20:53 13.3 °C 8.9 °C 1027.3 hPa SE 4.8 km/h 6.4 km/h 75 % 0 mm
20:58 13.3 °C 9.1 °C 1027.7 hPa SE 3.9 km/h 6.4 km/h 76 % 0 mm
21:03 13.2 °C 9.1 °C 1027.7 hPa ESE 2.9 km/h 7.4 km/h 76 % 0 mm
21:08 13.2 °C 9 °C 1027.7 hPa ESE 1.8 km/h 3.7 km/h 76 % 0 mm
21:13 13.1 °C 9 °C 1028.7 hPa ESE 1.8 km/h 5.6 km/h 76 % 0 mm
21:18 13.1 °C 9.1 °C 1027.7 hPa ESE 2.6 km/h 4.8 km/h 77 % 0 mm
21:23 13.1 °C 8.9 °C 1027.3 hPa ESE 4.3 km/h 5.6 km/h 76 % 0 mm
21:28 13 °C 9.1 °C 1027.3 hPa ESE 1.1 km/h 3.7 km/h 77 % 0 mm
21:33 13 °C 9.1 °C 1027.7 hPa ESE 1.9 km/h 3.7 km/h 77 % 0 mm
21:38 13 °C 9.1 °C 1029 hPa East 2.4 km/h 3.7 km/h 77 % 0 mm
21:43 12.9 °C 9 °C 1029 hPa ESE 1.4 km/h 3.2 km/h 77 % 0 mm
21:44 12.9 °C 9 °C 1027.3 hPa ESE 0.5 km/h 5.6 km/h 77 % 0 mm
21:49 12.9 °C 9.2 °C 1029 hPa ESE 1.9 km/h 5.6 km/h 78 % 0 mm
21:54 12.9 °C 9.2 °C 1029 hPa ESE 1.4 km/h 5.6 km/h 78 % 0 mm
21:59 12.9 °C 9.2 °C 1027.7 hPa East 1.8 km/h 1.9 km/h 78 % 0 mm
22:04 12.9 °C 9.3 °C 1028.7 hPa East 2.9 km/h 9.3 km/h 79 % 0 mm
22:09 13 °C 9.8 °C 1029 hPa East 8 km/h 9.7 km/h 81 % 0 mm
22:14 13.2 °C 9.6 °C 1029 hPa East 6.1 km/h 8 km/h 79 % 0 mm
22:19 13.3 °C 9.6 °C 1027.7 hPa East 8.7 km/h 14.8 km/h 78 % 0 mm
22:24 13.4 °C 9.6 °C 1029 hPa ENE 8.9 km/h 12.9 km/h 78 % 0 mm
22:29 13.4 °C 9.7 °C 1028.7 hPa East 6 km/h 9.3 km/h 78 % 0 mm
22:34 13.4 °C 9.5 °C 1028.7 hPa East 6.9 km/h 9.7 km/h 77 % 0 mm
22:40 13.4 °C 9.7 °C 1027.7 hPa East 5.3 km/h 18.5 km/h 78 % 0 mm
22:44 13.5 °C 9.7 °C 1027.7 hPa ENE 6.3 km/h 7.4 km/h 78 % 0 mm
22:50 13.5 °C 9.9 °C 1027.7 hPa East 4.5 km/h 7.4 km/h 79 % 0 mm
22:55 13.4 °C 9.9 °C 1029 hPa East 6.1 km/h 9.3 km/h 79 % 0 mm
23:00 13.4 °C 9.8 °C 1027.7 hPa East 6.3 km/h 9.3 km/h 79 % 0 mm
23:05 13.3 °C 9.8 °C 1027.7 hPa ESE 4.3 km/h 9.3 km/h 79 % 0 mm
23:10 13.3 °C 9.8 °C 1027.7 hPa East 6.6 km/h 9.7 km/h 79 % 0 mm
23:15 13.3 °C 9.9 °C 1027.7 hPa East 7.7 km/h 11.3 km/h 80 % 0 mm
23:20 13.3 °C 9.9 °C 1027.7 hPa East 6.6 km/h 13 km/h 80 % 0 mm
23:25 13.4 °C 10.2 °C 1029 hPa East 8 km/h 11.1 km/h 81 % 0 mm
23:30 13.4 °C 10.2 °C 1027.7 hPa East 6.6 km/h 9.7 km/h 81 % 0 mm
23:35 13.4 °C 10.2 °C 1027.7 hPa East 5.3 km/h 7.4 km/h 81 % 0 mm
23:40 13.4 °C 10.2 °C 1027.7 hPa East 5.6 km/h 9.3 km/h 81 % 0 mm
23:45 13.4 °C 10.2 °C 1027.7 hPa ENE 7.6 km/h 14.8 km/h 81 % 0 mm
23:51 13.4 °C 10.2 °C 1027.7 hPa ENE 1.6 km/h 9.7 km/h 81 % 0 mm
23:56 13.3 °C 9.9 °C 1027.7 hPa SE 5.1 km/h 9.3 km/h 80 % 0 mm
Crab Meadow Weather
Compliments of Weather Underground - 2.75 mb

Script developed by  Jim McMurry - jmcmurry@mwt.net Adapted for the template by  Wim van der Kuil - Leuven-Template.eu

Weather Terms: Enhanced Fujita Scale or EF-Scale - A scale of wind damage intensity in which wind speeds are inferred from analysis of wind damage. All tornadoes and most other windstorms are assigned a numerical rating from this scale according to the most intense damage caused by the storm. EF0 (weak) 6585 mph, light damage EF1 (weak) 86110 mph, moderate damage EF2 (strong) 111135 mph, considerable damage EF3 (strong) 136165 mph, severe damage EF4 (violent) 166200 mph, devastating damage EF5 (violent) >200 mph, incredible damage.